CYGFM08

Last updated on Sun Apr 12 2026 00:02:27 GMT+0000 (Coordinated Universal Time)

1 41888U 16078E 26101.30795559 .00020172 00000+0 27272-3 0 9998 2 41888 34.9447 325.2320 0009433 268.9971 90.9672 15.56714301518538
UTC large
Height (km)
Speed (km/s)
/
Latitude / Longitude
Inclination (degrees)
Orbital Period (minutes)
Azimuth
Elevation
Range (km)
Doppler Factor

Next 0 passes for location: London (51.5072 / 0.1276)

Sorry there are no passes over London.
CYGFM08